[Iaude] MPEC F38: 2024 FY [a=2.79,e=0.59,i=16.0,H=21.5]

mpec at cfa.harvard.edu mpec at cfa.harvard.edu
Tue Mar 19 16:40:58 EDT 2024


M.P.E.C. 2024-F38                                Issued 2024 March 19, 20:39 UT

     The Minor Planet Electronic Circulars contain information on unusual
         minor planets, routine data on comets and natural satellites,
         and occasional editorial announcements.  They are published
    on behalf of Division F of the International Astronomical Union by the
          Minor Planet Center, Smithsonian Astrophysical Observatory,
                          Cambridge, MA 02138, U.S.A.
			  
             Prepared using the Tamkin Foundation Computer Network

                              MPC at CFA.HARVARD.EDU
            URL https://www.minorplanetcenter.net/    ISSN 1523-6714

                                    2024 FY                                     


Observations:
     K24F00Y* C2024 03 16.54030414 48 13.409-11 10 01.68         19.99wXEF038F51
     K24F00Y  C2024 03 16.55160514 48 15.710-11 09 11.34         20.12wXEF038F51
     K24F00Y  C2024 03 16.57426914 48 20.303-11 07 30.27         20.01wXEF038F51
     K24F00Y pC2024 03 16.95963714 49 45.51 -10 39 03.3          19.6 GVEF038L01
     K24F00Y pC2024 03 16.96112114 49 45.80 -10 38 57.5          19.8 GVEF038L01
     K24F00Y pC2024 03 16.96260114 49 46.08 -10 38 50.9          20.5 GVEF038L01
     K24F00Y pC2024 03 16.96408314 49 46.45 -10 38 44.2          19.0 GVEF038L01
     K24F00Y pC2024 03 16.96556614 49 46.73 -10 38 37.4          19.4 GVEF038L01
     K24F00Y KC2024 03 17.03807 14 50 01.64 -10 32 34.5          19.7 GVEF038M21
     K24F00Y 1C2024 03 17.06034 14 50 06.08 -10 31 40.2          20.0 VXEF038033
     K24F00Y 1C2024 03 17.06069 14 50 06.16 -10 31 38.6          19.9 VXEF038033
     K24F00Y 1C2024 03 17.06103 14 50 06.19 -10 31 36.7          20.1 VXEF038033
     K24F00Y 1C2024 03 17.06136 14 50 06.30 -10 31 36.0          19.9 VXEF038033
     K24F00Y KC2024 03 17.06797 14 50 07.59 -10 30 21.8                VEF038M21
     K24F00Y KB2024 03 17.13616414 50 21.77 -10 26 00.6          19.6 GXEF038958
     K24F00Y KB2024 03 17.14053314 50 22.70 -10 25 41.8          19.8 GXEF038958
     K24F00Y KB2024 03 17.14485514 50 23.55 -10 25 21.7          19.8 GXEF038958
     K24F00Y |C2024 03 17.29109014 50 55.320-10 13 47.10         19.8 GVEF038807
     K24F00Y |C2024 03 17.29329014 50 55.770-10 13 37.20         19.5 GVEF038807
     K24F00Y |C2024 03 17.29549014 50 56.210-10 13 27.50         19.8 GVEF038807
     K24F00Y KC2024 03 17.31513414 51 00.67 -10 12 44.7          20.0 GVEF038H21
     K24F00Y KC2024 03 17.31793114 51 01.23 -10 12 32.6          20.0 GVEF038H21
     K24F00Y KC2024 03 17.32072814 51 01.78 -10 12 20.0          20.1 GVEF038H21
     K24F00Y 1C2024 03 18.02666 14 53 28.58 -09 20 30.3          19.9 VXEF038033
     K24F00Y 1C2024 03 18.02701 14 53 28.60 -09 20 29.2          20.0 VXEF038033
     K24F00Y 1C2024 03 18.02735 14 53 28.70 -09 20 27.8          19.7 VXEF038033
     K24F00Y 1C2024 03 18.02768 14 53 28.77 -09 20 26.4          20.2 VXEF038033
     K24F00Y 1C2024 03 19.61728014 58 39.665-07 25 08.83         20.08GVEF038T12
     K24F00Y 1C2024 03 19.61825014 58 39.833-07 25 04.77         20.01GVEF038T12

Observer details:
033 Karl Schwarzschild Observatory, Tautenburg.  Observers S. Melnikov, C.
    Hogner, F. Ludwig, M. Hartmann, B. Stecklum.  Measurer B. Stecklum.
    1.34-m f/3 Schmidt + CCD.
807 Cerro Tololo Observatory, La Serena.  Observers T. Linder, R. Holmes.
    0.61-m f/6.8 Ritchey-Chretien + CCD.
958 Observatoire de Dax.  Observer P. Dupouy.  0.50-m f/4.5 Reflector + CMO.
F51 Pan-STARRS 1, Haleakala.  Observers J. Herman, T. Lowe, P. Minguez, A.
    Schultz, I. Smith.  Measurers K. Chambers, T. de Boer, J. Fairlamb, H.
    Gao, M. Huber, C.-C. Lin, E. Magnier, Y. Ramanjooloo, R. Wainscoat, R.
    Weryk.  1.8-m Ritchey-Chretien + CCD.
H21 Astronomical Research Observatory, Westfield.  Observer R. Holmes.
    Measurers T. Linder, R. Holmes, L. Horn.  0.76-m f/3.0 astrograph + CCD.
L01 Visnjan Observatory, Tican.  Observer K. Korlevic.  1.0-m f/2.9 reflector
    + CCD.
M21 Schiaparelli Southern Observatory, Hakos.  Observers A. Aletti, F.
    Bellini, L. Buzzi, G. Galli.  Measurer L. Buzzi.  0.36-m f/8.4 reflector +
    CCD.
T12 University of Hawaii 88-inch telescope, Maunakea.  Observer J. Fairlamb.
    Measurers R. Weryk, J. Fairlamb, Y. Ramanjooloo, R. Wainscoat.  2.24-m
    f/10.1 reflector + CCD.

Orbital elements:
2024 FY                                                  Earth MOID = 0.1436 AU
Epoch 2024 Mar. 31.0 TT = JDT 2460400.5                 Veres                   
M   6.96545              (2000.0)            P               Q                  
n   0.21194881     Peri.  344.40819     -0.96664213     -0.25610305             
a   2.7860061      Node   180.78316     +0.25443076     -0.95842792             
e   0.5947791      Incl.   16.01991     +0.02946166     -0.12580603             
P   4.65           H   21.51          G   0.15           U   8                  
Residuals in seconds of arc
240316 F51  0.1-  0.1+    240317 033  0.1+  0.2-    240317 H21  0.1+  0.1+
240316 F51  0.0   0.1+    240317 033  0.5-  0.2+    240317 H21  0.1+  0.2-
240316 F51  0.0   0.0     240317 033  0.2+  0.6-    240317 H21  0.1+  0.1+
240316 L01  0.1+  0.5+    240317 M21  0.0   0.2-    240318 033  0.3+  0.6+
240316 L01  0.2-  0.3-    240317 958  1.0-  0.0     240318 033  0.4-  0.2+
240316 L01  0.6-  0.2-    240317 958  0.3-  0.6-    240318 033  0.0   0.1+
240316 L01  0.4+  0.1-    240317 958  0.5-  0.4+    240318 033  0.2+  0.0
240316 L01  0.0   0.2+    240317 807  0.3-  0.2-    240319 T12  0.0   0.1+
240317 M21  0.3-  0.3-    240317 807  0.1-  0.0     240319 T12  0.0   0.0
240317 033  0.0   0.2-    240317 807  0.0   0.0

Ephemeris:
2024 FY                  a,e,i = 2.79, 0.59, 16                  q = 1.1289
Date    TT    R. A. (2000) Decl.     Delta      r    Elong.  Phase     V
2024 02 18    12 12 39.7 -37 47 53   0.2432  1.1347   121.6    47.9    20.5
...
2024 03 04    13 48 51.5 -26 27 56   0.2098  1.1313   127.4    44.1    20.1
...
2024 03 12    14 29 50.9 -16 51 50   0.2094  1.1421   131.0    41.0    20.0
...
2024 03 18    14 53 22.2 -09 21 57   0.2175  1.1557   133.4    38.7    20.1
2024 03 19    14 56 41.9 -08 09 15   0.2195  1.1584   133.8    38.3    20.1
2024 03 20    14 59 51.9 -06 57 38   0.2217  1.1612   134.2    38.0    20.1
...
2024 03 26    15 15 39.3 -00 17 22   0.2381  1.1807   136.1    35.9    20.2
...
2024 04 03    15 29 10.5 +07 01 13   0.2677  1.2128   138.3    33.3    20.5
...
2024 04 18    15 37 38.4 +15 44 08   0.3419  1.2891   141.4    29.1    21.0

M. P. C. Staff               (C) Copyright 2024 MPC           M.P.E.C. 2024-F38





More information about the Iaude mailing list